Location: P�rn�nmaa
(61.1833°N, 23.0000°E)
Time: 18:26:08
(UTC+00:00)

COSMOS 2428 - Pass Details

Date: 08 December 2019
Orbit: 844 x 858 km, 70.9° (Epoch: 17 January)

Event Time Altitude Azimuth Distance (km) Brightness Sun altitude
Rises 18:52:11 0° 264° (W) 3,412 6.6 -37.8°
Reaches altitude 10° 18:54:49 10° 273° (W) 2,480 5.8 -38.1°
Enters shadow 18:58:08 29° 301° (WNW) 1,520 4.4 -38.5°
